Regional Weather Roundup
Issued by NWS Burlington, VT

Current Version | Previous Version | Text Only | Print | Product List | Glossary Off
Versions: 1 2 3 4 5 6 7 8 9 10 11 12 13 14 15 16 17 18 19 20 21 22 23 24 25 26 27 28 29 30 31 32 33 34 35 36 37 38 39 40 41 42 43 44 45 46 47 48 49 50

000
ASUS41 KBTV 201510
RWRBTV
VERMONT REGIONAL WEATHER ROUNDUP
NATIONAL WEATHER SERVICE BURLINGTON VT
1100 AM EDT WED AUG 20 2014

NOTE: "FAIR" INDICATES FEW OR NO CLOUDS BELOW 12,000 FEET WITH NO
SIGNIFICANT WEATHER AND/OR OBSTRUCTIONS TO VISIBILITY.

* THESE REPORTS ARE NOT UNDER NWS QUALITY CONTROL AND/OR DO NOT
  REPORT WEATHER SUCH AS PRECIPITATION AND FOG.

VTZ001>019-201600-
_____VERMONT_____


CITY           SKY/WX    TMP DP  RH WIND       PRES   REMARKS
BURLINGTON     PTSUNNY   76  56  49 S6        29.99S
MONTPELIER     SUNNY     68  57  68 CALM      30.07S
MORRISVILLE    SUNNY     72  58  61 CALM      30.04S
ST. JOHNSBURY*   N/A     66  55  67 MISG      30.03S
MIDDLEBURY*    PTSUNNY   73  61  66 CALM      30.00S
RUTLAND*       MOSUNNY   73  57  56 SW6       30.00F
SPRINGFIELD    MOSUNNY   69  56  62 CALM      30.03F
HIGHGATE*      FAIR      74  59  59 NE3       29.99S
NEWPORT*       FAIR      71  57  61 SE7       30.04S
BENNINGTON     MOSUNNY   75  62  64 VRB5      30.01S

_____LAKE CHAMPLAIN_____


CITY           SKY/WX    TMP DP  RH WIND       PRES   REMARKS
COLCHESTER RF*   N/A     66  59  77 S10         N/A
DIAMOND ISL*     N/A     66  59  77 SW3         N/A

$$

NYZ007-026>031-035-052-083-201600-
_____NORTHERN NEW YORK_____


CITY           SKY/WX    TMP DP  RH WIND       PRES   REMARKS
PLATTSBURGH    SUNNY     69  59  70 E6        29.99S
SARANAC LAKE   MOSUNNY   72  58  61 CALM      29.99S
MASSENA        MOSUNNY   73  61  65 NE9       29.97S
OGDENSBURG*    SUNNY     75  63  64 CALM      29.95R
WATERTOWN      MOSUNNY   77  64  64 SW6       29.93S
FT DRUM        MOSUNNY   75  60  60 SE6       29.94S
ALBANY         CLOUDY    73  63  70 S9        30.00S
GLENS FALLS    PTSUNNY   71  59  65 SE7       30.00S

$$
NHZ002-005-011-201600-
_____NEW HAMPSHIRE_____


CITY           SKY/WX    TMP DP  RH WIND       PRES   REMARKS
LEBANON        SUNNY     64  55  72 CALM      30.04S
KEENE          SUNNY     72  52  49 CALM      30.03F
MT WASHINGTON  MOSUNNY   52  45  76 S3          N/A
PLYMOUTH       FAIR      69  62  79 CALM      30.03F
WHITEFIELD     SUNNY     71  58  63 CALM      30.04F

$$

_____REGIONAL QUEBEC LOCATIONS_____


CITY           SKY/WX    TMP DP  RH WIND       PRES   REMARKS
MONTREAL       PTSUNNY   73  57  56 E9        29.99R
QUEBEC CITY    MOSUNNY   72  59  64 SE3       30.04R
SHERBROOKE     SUNNY     72  57  60 VRB3      30.04S

_____REGIONAL ONTARIO LOCATIONS_____


CITY           SKY/WX    TMP DP  RH WIND       PRES   REMARKS
OTTAWA         PTSUNNY   72  59  64 E8        29.97S

______KEY______
VSB  - VISIBILITY IN MILES
WCI  - WIND CHILL INDEX
HX   - HEAT INDEX
$$
NNNN


USA.gov is the U.S. government's official web portal to all federal, state and local government web resources and services.